When you browse on this site, cookies collect data to enhance your experience and personalize the content and advertising you see.
Visit our Privacy Policy to learn more. By continuing to use the site, you agree to this use of cookies and data.
  • In Romania
  • List of Countries
  • For 7 days
  • Water Temperature
  • Satellite Maps
  • Weather Map
  • Weather Widgets
  • user-avatar
    Login

    Hourly Weather Lago d'Arno

    Today, 18 April, Thursday

    Time Temperature Precipitation Wind Pressure Humidity
    00:00 +2°C° 0.3 mm 0 mps 608 mmHg 91%
    01:00 +3°C° 0 mm 1 mps 608 mmHg 89%
    02:00 +2°C° 0.1 mm 1 mps 608 mmHg 89%
    03:00 +2°C° 0.1 mm 1 mps 608 mmHg 90%
    04:00 +2°C° 0.1 mm 1 mps 608 mmHg 91%
    05:00 +2°C° 0 mm 1 mps 609 mmHg 89%
    06:00 +2°C° 0 mm 1 mps 609 mmHg 88%
    07:00 +2°C° 0 mm 0 mps 609 mmHg 87%
    08:00 +4°C° 0 mm 1 mps 610 mmHg 82%
    09:00 +5°C° 0 mm 1 mps 610 mmHg 77%
    10:00 +6°C° 0 mm 1 mps 610 mmHg 73%
    11:00 +6°C° 0.1 mm 1 mps 610 mmHg 74%
    12:00 +6°C° 0.1 mm 1 mps 610 mmHg 76%
    13:00 +5°C° 0.1 mm 2 mps 610 mmHg 77%
    14:00 +5°C° 0.3 mm 2 mps 610 mmHg 77%
    15:00 +5°C° 0.3 mm 2 mps 610 mmHg 77%
    16:00 +6°C° 0.3 mm 1 mps 610 mmHg 77%
    17:00 +5°C° 0.4 mm 1 mps 610 mmHg 81%
    18:00 +4°C° 0.4 mm 1 mps 610 mmHg 86%
    19:00 +3°C° 0.4 mm 1 mps 610 mmHg 90%
    20:00 +3°C° 0.4 mm 1 mps 610 mmHg 91%
    21:00 +2°C° 0.4 mm 0 mps 611 mmHg 92%
    22:00 +1°C° 0.4 mm 0 mps 611 mmHg 93%
    23:00 +2°C° 0.1 mm 1 mps 611 mmHg 93%

    Tomorrow, 19 April, Friday

    Time Temperature Precipitation Wind Pressure Humidity
    00:00 +2°C° 0.1 mm 1 mps 611 mmHg 93%
    01:00 +1°C° 0.1 mm 1 mps 611 mmHg 93%
    02:00 +1°C° 0 mm 1 mps 611 mmHg 93%
    03:00 +1°C° 0 mm 1 mps 611 mmHg 92%
    04:00 +1°C° 0 mm 1 mps 611 mmHg 91%
    05:00 +1°C° 0 mm 1 mps 612 mmHg 89%
    06:00 +2°C° 0 mm 1 mps 612 mmHg 87%
    07:00 +2°C° 0 mm 1 mps 612 mmHg 85%
    08:00 +4°C° 0 mm 1 mps 613 mmHg 79%
    09:00 +6°C° 0 mm 1 mps 614 mmHg 74%
    10:00 +7°C° 0 mm 1 mps 614 mmHg 69%
    11:00 +7°C° 0 mm 1 mps 614 mmHg 69%
    12:00 +7°C° 0 mm 1 mps 614 mmHg 68%
    13:00 +7°C° 0 mm 1 mps 614 mmHg 68%
    14:00 +8°C° 0 mm 1 mps 614 mmHg 68%
    15:00 +8°C° 0 mm 1 mps 614 mmHg 67%
    16:00 +8°C° 0 mm 1 mps 614 mmHg 67%
    17:00 +7°C° 0 mm 1 mps 613 mmHg 72%
    18:00 +6°C° 0 mm 1 mps 612 mmHg 78%
    19:00 +3°C° 0 mm 0 mps 612 mmHg 84%
    20:00 +4°C° 0 mm 1 mps 612 mmHg 85%
    21:00 +3°C° 0 mm 1 mps 612 mmHg 87%
    22:00 +2°C° 0 mm 1 mps 612 mmHg 88%
    23:00 +2°C° 0 mm 1 mps 612 mmHg 88%

    Day after tomorrow, 20 April, Saturday

    Time Temperature Precipitation Wind Pressure Humidity
    00:00 +1°C° 0 mm 1 mps 612 mmHg 87%
    01:00 -1°C° 0 mm 2 mps 612 mmHg 87%
    02:00 -1°C° 0 mm 2 mps 611 mmHg 85%
    03:00 -1°C° 0 mm 2 mps 611 mmHg 84%
    04:00 -2°C° 0 mm 2 mps 611 mmHg 82%
    05:00 -1°C° 0 mm 2 mps 611 mmHg 78%
    06:00 +1°C° 0 mm 2 mps 612 mmHg 74%
    07:00 +2°C° 0 mm 2 mps 612 mmHg 70%
    08:00 +5°C° 0 mm 1 mps 612 mmHg 63%
    09:00 +7°C° 0 mm 1 mps 613 mmHg 57%
    10:00 +9°C° 0 mm 1 mps 614 mmHg 50%
    11:00 +10°C° 0 mm 1 mps 614 mmHg 49%
    12:00 +10°C° 0 mm 1 mps 614 mmHg 48%
    13:00 +11°C° 0 mm 1 mps 614 mmHg 47%
    14:00 +10°C° 0 mm 1 mps 614 mmHg 49%
    15:00 +10°C° 0 mm 1 mps 613 mmHg 52%
    16:00 +10°C° 0 mm 1 mps 613 mmHg 55%
    17:00 +8°C° 0 mm 1 mps 612 mmHg 62%
    18:00 +7°C° 0 mm 1 mps 611 mmHg 70%
    19:00 +5°C° 0 mm 1 mps 610 mmHg 78%
    20:00 +4°C° 0 mm 1 mps 610 mmHg 81%
    21:00 +4°C° 0 mm 1 mps 610 mmHg 83%
    22:00 +3°C° 0 mm 1 mps 611 mmHg 86%
    23:00 +3°C° 0 mm 1 mps 610 mmHg 86%

    21 April, Sunday

    Time Temperature Precipitation Wind Pressure Humidity
    00:00 +2°C° 0 mm 1 mps 610 mmHg 86%
    01:00 +2°C° 0 mm 1 mps 610 mmHg 86%
    02:00 +2°C° 0 mm 1 mps 609 mmHg 85%
    03:00 +1°C° 0 mm 2 mps 609 mmHg 84%
    04:00 +1°C° 0 mm 2 mps 608 mmHg 83%
    05:00 +2°C° 0 mm 1 mps 608 mmHg 79%
    06:00 +3°C° 0 mm 1 mps 609 mmHg 75%
    07:00 +4°C° 0 mm 1 mps 609 mmHg 72%
    08:00 +5°C° 0 mm 1 mps 609 mmHg 65%
    09:00 +7°C° 0 mm 1 mps 610 mmHg 58%
    10:00 +9°C° 0 mm 1 mps 610 mmHg 51%
    11:00 +10°C° 0 mm 1 mps 610 mmHg 50%
    12:00 +9°C° 0 mm 2 mps 610 mmHg 49%
    13:00 +10°C° 0 mm 2 mps 610 mmHg 48%
    14:00 +9°C° 0.1 mm 2 mps 609 mmHg 52%
    15:00 +9°C° 0.1 mm 2 mps 609 mmHg 57%
    16:00 +8°C° 0.1 mm 2 mps 608 mmHg 61%
    17:00 +7°C° 0.1 mm 2 mps 608 mmHg 69%
    18:00 +7°C° 0.1 mm 1 mps 607 mmHg 77%
    19:00 +5°C° 0.1 mm 1 mps 607 mmHg 85%
    20:00 +5°C° 0 mm 1 mps 607 mmHg 87%
    21:00 +4°C° 0 mm 1 mps 607 mmHg 89%
    22:00 +2°C° 0 mm 0 mps 607 mmHg 91%
    23:00 +2°C° 0 mm 0 mps 607 mmHg 91%

    22 April, Monday

    Time Temperature Precipitation Wind Pressure Humidity
    00:00 +3°C° 0 mm 1 mps 607 mmHg 91%
    01:00 +3°C° 0 mm 1 mps 607 mmHg 90%
    02:00 +3°C° 0 mm 1 mps 606 mmHg 91%
    03:00 +2°C° 0 mm 1 mps 606 mmHg 92%
    04:00 +2°C° 0 mm 1 mps 605 mmHg 92%
    05:00 +2°C° 0 mm 1 mps 605 mmHg 89%
    06:00 +3°C° 0 mm 1 mps 605 mmHg 86%
    07:00 +3°C° 0 mm 1 mps 605 mmHg 83%
    08:00 +5°C° 0 mm 1 mps 606 mmHg 70%
    09:00 +6°C° 0 mm 1 mps 606 mmHg 58%
    10:00 +8°C° 0 mm 1 mps 607 mmHg 45%
    11:00 +7°C° 0 mm 2 mps 606 mmHg 45%
    12:00 +8°C° 0 mm 2 mps 606 mmHg 45%
    13:00 +8°C° 0 mm 2 mps 606 mmHg 45%
    14:00 +8°C° 0 mm 2 mps 606 mmHg 46%
    15:00 +8°C° 0 mm 2 mps 605 mmHg 47%
    16:00 +9°C° 0 mm 1 mps 605 mmHg 48%
    17:00 +8°C° 0 mm 1 mps 604 mmHg 57%
    18:00 +6°C° 0 mm 1 mps 603 mmHg 66%
    19:00 +5°C° 0 mm 1 mps 603 mmHg 75%
    20:00 +4°C° 0 mm 1 mps 602 mmHg 80%
    21:00 +3°C° 0 mm 1 mps 602 mmHg 85%
    22:00 +3°C° 0 mm 1 mps 602 mmHg 89%
    23:00 +2°C° 0 mm 1 mps 602 mmHg 89%

    23 April, Tuesday

    Time Temperature Precipitation Wind Pressure Humidity
    00:00 +1°C° 0 mm 2 mps 601 mmHg 88%
    01:00 +1°C° 0 mm 2 mps 601 mmHg 87%
    02:00 +1°C° 0.3 mm 2 mps 601 mmHg 84%
    03:00 +1°C° 0.3 mm 2 mps 600 mmHg 81%
    04:00 +1°C° 0.3 mm 2 mps 600 mmHg 78%
    05:00 +1°C° 0.3 mm 2 mps 600 mmHg 78%
    06:00 +1°C° 0.3 mm 2 mps 599 mmHg 78%
    07:00 +2°C° 0.3 mm 2 mps 599 mmHg 79%
    08:00 +3°C° 0.4 mm 2 mps 599 mmHg 78%
    09:00 +3°C° 0.4 mm 2 mps 600 mmHg 77%
    10:00 +4°C° 0.4 mm 2 mps 600 mmHg 76%
    11:00 +5°C° 0.9 mm 1 mps 600 mmHg 78%
    12:00 +5°C° 0.9 mm 1 mps 600 mmHg 80%
    13:00 +5°C° 0.9 mm 1 mps 600 mmHg 83%
    14:00 +5°C° 0.8 mm 1 mps 600 mmHg 84%
    15:00 +5°C° 0.8 mm 1 mps 600 mmHg 85%
    16:00 +5°C° 0.8 mm 1 mps 600 mmHg 86%
    17:00 +4°C° 0.3 mm 0 mps 600 mmHg 88%
    18:00 +3°C° 0.3 mm 0 mps 600 mmHg 90%
    19:00 +3°C° 0.3 mm 0 mps 600 mmHg 93%
    20:00 +3°C° 0.1 mm 0 mps 600 mmHg 93%
    21:00 +3°C° 0.1 mm 0 mps 600 mmHg 93%
    22:00 +2°C° 0.1 mm 0 mps 601 mmHg 93%
    23:00 +3°C° 0 mm 1 mps 601 mmHg 92%
    Show more